Location: Unspecified
(0.0000°N, 0.0000°E)
Time: 11:20:05
(UTC+00:00)

Vanguard 1 - Pass Details

Date: 26 November 2019
Orbit: 652 x 3831 km, 34.3° (Epoch: 07 December)

Event Time Altitude Azimuth Distance (km) Brightness Sun altitude
Rises 00:06:39 0° 217° (SW) 6,109 14.3 -68.6°
Reaches altitude 10° 00:12:08 10° 201° (SSW) 5,626 14.0 -68.3°
Maximum altitude 00:25:05 22° 156° (SSE) 5,571 13.9 -67.2°
Drops below altitude 10° 00:40:48 10° 113° (ESE) 6,938 14.5 -65.4°
Sets 00:48:42 0° 99° (E) 7,874 14.9 -64.3°
